[[{"header":{"parameterUnit":"m.s-1","parameterCategory":1,"la1":30.2992,"la2":30.254,"lo1":-89.0895,"lo2":-89.0443,"dy":0.0025,"dx":0.0025,"nx":19,"ny":19,"refTime":"2026-04-03T21:00:00:Z","depth":0,"parameterNumber":2,"parameterNumberName":"U-component_of_WINDS"},"data":[0,0,0,-0.8034,-0.8033,-0.7988,-0.7988,-0.7938,-0.7937,0,0,0,0,0,0,0,0,0,0,0,-0.8051,-0.8051,-0.8034,-0.8033,-0.7988,-0.7988,-0.7938,-0.7937,0,0,0,0,0,0,0,0,0,0,0,-0.8051,-0.8051,-0.8051,-0.8033,-0.7988,-0.7988,-0.7938,-0.7969,0,0,0,0,0,0,0,0,0,0,-0.8011,-0.8032,-0.8051,-0.8051,-0.8032,-0.7988,-0.7988,-0.797,-0.7967,-0.7961,0,-0.7957,0,-0.7946,-0.7934,-0.7934,0,0,0,-0.8029,-0.8034,-0.8019,-0.8051,-0.8032,-0.7988,-0.8007,-0.7968,-0.7965,-0.7956,-0.7956,-0.7954,-0.7945,-0.7934,-0.7934,-0.791,-0.791,0,0,-0.8032,-0.8045,-0.8021,-0.8016,-0.8024,-0.8009,-0.8006,-0.7966,-0.7966,-0.7956,-0.7953,-0.7945,-0.7934,-0.7934,-0.791,-0.791,0,0,0,-0.8041,-0.8047,-0.8032,-0.8019,-0.801,-0.8008,-0.8004,-0.7968,-0.7962,-0.7952,-0.7944,-0.7934,-0.7933,-0.791,-0.791,-0.7925,0,0,0,-0.8042,-0.8053,-0.8033,-0.8041,-0.8011,-0.7989,-0.8007,-0.7965,-0.796,-0.7944,-0.7934,-0.7933,-0.791,-0.791,-0.7925,-0.793,0,0,0,-0.8053,-0.8054,-0.8049,-0.8042,-0.8024,-0.7989,-0.798,-0.7963,-0.7955,-0.7934,-0.7933,-0.791,-0.791,-0.7924,-0.793,-0.7928,0,0,0,-0.8067,-0.8063,-0.8049,-0.8042,-0.8024,-0.7999,-0.7981,-0.7961,-0.7945,-0.7933,-0.791,-0.791,-0.7924,-0.7929,-0.7928,-0.7929,-0.7931,0,0,-0.807,-0.8064,-0.8059,-0.8045,-0.8026,-0.8005,-0.7988,-0.796,-0.7945,-0.7922,-0.7922,-0.7925,-0.793,-0.7928,-0.7938,-0.794,0,0,0,-0.8064,-0.806,-0.8052,-0.8038,-0.8017,-0.7999,-0.7972,-0.7962,-0.7942,-0.7936,-0.7924,-0.7926,-0.7924,-0.7925,-0.7926,-0.7924,-0.7911,-0.791,-0.791,-0.8088,-0.8069,-0.8059,-0.8035,-0.8021,-0.7994,-0.7981,-0.7962,-0.7947,-0.7945,-0.7938,-0.7946,-0.7947,-0.7948,-0.7946,-0.7937,-0.7937,-0.7937,-0.7937,-0.809,-0.8082,-0.8062,-0.8045,-0.8026,-0.8011,-0.7984,-0.7975,-0.7958,-0.795,-0.7947,-0.794,-0.795,-0.7947,-0.7938,-0.7938,-0.7938,-0.7938,-0.7938,-0.8103,-0.8096,-0.8084,-0.8061,-0.8045,-0.8021,-0.8006,-0.7988,-0.7972,-0.797,-0.796,-0.796,-0.7957,-0.7966,-0.7966,-0.7966,-0.7966,-0.7967,-0.7967,-0.8122,-0.8108,-0.8097,-0.8074,-0.8062,-0.8045,-0.8017,-0.8005,-0.7987,-0.7975,-0.7975,-0.7961,-0.7955,-0.7953,-0.7967,-0.7967,-0.7967,-0.7967,-0.7967,-0.8131,-0.8126,-0.8111,-0.8099,-0.807,-0.8056,-0.8034,-0.801,-0.7998,-0.7991,-0.7977,-0.7975,-0.7968,-0.7966,-0.7965,-0.7981,-0.7981,-0.7981,-0.7981,-0.8143,-0.8137,-0.8117,-0.8099,-0.808,-0.8058,-0.8041,-0.8019,-0.7995,-0.7986,-0.7982,-0.7979,-0.7978,-0.7971,-0.797,-0.7968,-0.7984,-0.7984,-0.7984,-0.8148,-0.8139,-0.8128,-0.8105,-0.8081,-0.8061,-0.8044,-0.8024,-0.7997,-0.7984,-0.7979,-0.7979,-0.7974,-0.7973,-0.7961,-0.7959,-0.7956,0,0]},{"header":{"parameterUnit":"m.s-1","parameterCategory":1,"la1":30.2992,"la2":30.254,"lo1":-89.0895,"lo2":-89.0443,"dy":0.0025,"dx":0.0025,"nx":19,"ny":19,"refTime":"2026-04-03T21:00:00:Z","depth":0,"parameterNumber":3,"parameterNumberName":"V-component_of_WINDS"},"data":[0,0,0,2.0122,2.0122,2.0139,2.0139,2.0168,2.0168,0,0,0,0,0,0,0,0,0,0,0,2.0121,2.0121,2.0122,2.0122,2.0139,2.0139,2.0168,2.0168,0,0,0,0,0,0,0,0,0,0,0,2.0121,2.0121,2.0121,2.0122,2.0139,2.0139,2.0168,2.0152,0,0,0,0,0,0,0,0,0,0,2.0135,2.0138,2.0121,2.0121,2.0122,2.0139,2.0139,2.0152,2.0153,2.0163,0,2.0173,0,2.0172,2.0171,2.0171,0,0,0,2.0119,2.0137,2.0137,2.0122,2.0122,2.0139,2.013,2.0153,2.0155,2.0166,2.0174,2.0175,2.0172,2.0171,2.0171,2.0241,2.0242,0,0,2.0118,2.0126,2.0136,2.0139,2.0137,2.013,2.0131,2.0154,2.0163,2.0174,2.0175,2.0172,2.0171,2.0172,2.0241,2.0241,0,0,0,2.0117,2.0125,2.0126,2.0138,2.0141,2.0131,2.0132,2.0162,2.0161,2.0175,2.0173,2.0171,2.0172,2.024,2.0241,2.0273,0,0,0,2.0117,2.0125,2.0125,2.0131,2.014,2.0151,2.0139,2.016,2.0162,2.0173,2.0171,2.0172,2.0239,2.024,2.0271,2.0287,0,0,0,2.0118,2.0125,2.0129,2.0131,2.0139,2.0151,2.0151,2.016,2.016,2.0171,2.0172,2.0239,2.024,2.0269,2.0284,2.0309,0,0,0,2.0122,2.0157,2.013,2.0168,2.0139,2.0171,2.0151,2.0174,2.0187,2.0172,2.024,2.0241,2.0269,2.0282,2.0307,2.0332,2.0343,0,0,2.0171,2.0163,2.0185,2.0161,2.0201,2.0168,2.0212,2.0215,2.0208,2.0231,2.0232,2.0272,2.0284,2.0309,2.04,2.0409,0,0,0,2.0203,2.0219,2.0228,2.0241,2.0245,2.025,2.0246,2.0248,2.0267,2.0221,2.0287,2.0294,2.0308,2.0319,2.0327,2.0339,2.0246,2.0246,2.0246,2.0283,2.0274,2.031,2.0303,2.0316,2.0312,2.0322,2.0324,2.0309,2.0325,2.0331,2.0388,2.0402,2.0407,2.042,2.0343,2.0343,2.0343,2.0343,2.0354,2.0375,2.0357,2.0385,2.0375,2.0399,2.0397,2.0386,2.0407,2.0382,2.0394,2.0367,2.0417,2.0428,2.0346,2.0345,2.0345,2.0345,2.0345,2.0406,2.0415,2.0417,2.0436,2.0452,2.0443,2.0465,2.0454,2.0445,2.0456,2.0463,2.0462,2.0461,2.046,2.046,2.0461,2.0461,2.0461,2.0461,2.0459,2.046,2.048,2.0489,2.0497,2.0506,2.0504,2.0512,2.0517,2.0508,2.0508,2.0493,2.0424,2.0407,2.0464,2.0464,2.0463,2.0463,2.0463,2.0535,2.0517,2.0547,2.0555,2.0566,2.0583,2.057,2.0587,2.0591,2.0602,2.0585,2.0535,2.0526,2.052,2.0507,2.0586,2.0586,2.0586,2.0586,2.058,2.0575,2.0604,2.0618,2.0631,2.0623,2.0658,2.0657,2.0653,2.0656,2.0643,2.0623,2.0618,2.0612,2.0604,2.0591,2.0691,2.0691,2.0691,2.0627,2.0623,2.0655,2.0651,2.0659,2.0666,2.07,2.0717,2.0708,2.0695,2.0658,2.0654,2.0622,2.0612,2.0598,2.0586,2.0561,0,0]}]]